Погода в Камышине

Погода в Камышине : погода сейчас, прогноз погоды и архив. Всё, что Вы хотите узнать о погоде в Камышине!

Хотите узнать прогноз погоды в Камышине? Тогда Вам сюда: Погода в Камышине

Поиск расширенной информации на нашем сайте:

Другие новости

Новости СМИ2

Главная страница сайта

Новости сайта

03.07.2017

Напоминаем, что на нашем специализированном сайте Метеоцентр.Азия вы можете получить высокодетализированные автоматические прогнозы погоды по пунктам России, СНГ и мира в авиационном формате (включающие направление и скорость ветра, видимость, явления погоды, количество и форму облачности, нижнюю и верхнюю границу облачности).

Рекомендуем: Навгеотех - геодезическое оборудование: GPS приемники, тахеометры, нивелиры, теодолиты, рулетки..

Погода в Камышине - сегодня

Время (UTC), дата Ветер
(°,м/с) 
Видим.   Явления Облачность Т
(°С)
Тd
(°С)
f(%) Тe
(°С)
Pmin
(гПа)
dP
(гПа)
Po
(мм)
O2
(г/м3)
Тmin Tmax R s Состояние
почвы
09 22.11.17 110 (В) 0200 м  слаб. морось{туман}  ?/?  
+2.8 +2.2 96 +4  1002.5  -0.2  741  295           
12 22.11.17 270 (З) 2000 м  в посл. час туман{морось}  10/10 100 м 
[St]
+4.1 +3.3 95 +4  1002.5  -0.1  741  293           
15 22.11.17 260 (З) 7-10{11}  2000 м  в посл. час туман  10/10 100 м 
[St]
+2.1 +1.5 96 -1  1004.1  1.4  742  296    +4.3  0.1     
18 22.11.17 270 (З) 7-11{12}  4000 м  дымка{туман}  10/10 200 м 
[St]
+1.3 +0.3 93 -2  1005.1  742  298           
21 22.11.17 280 (З) 6{13}  4000 м  дымка  10/10 200 м 
[St]
+0.9 -0.8 88 -2  1005.8  0.7  743  298           
00 23.11.17 260 (З) 5{10}  4000 м  дымка  10/10 200 м 
[St]
+0.7 -1.1 88 -2  1007.1  1.2  744  299           
03 23.11.17 260 (З) 4000 м  дымка  8/8 200 м 
[St]
+0 -1.4 90 -3  1007.6  0.5  744  300  +0         
06 23.11.17 240 (ЮЗ) 10 км    10/10 300 м 
[St]
+0.6 -1.6 85 -3  1009.6  746  300  -0.2         
09 23.11.17 240 (ЮЗ) 20000 м    9/9 600 м 
[Sc]
+1.5 -3.2 71 -1  1010.8  1.3  747  300           
12 23.11.17 220 (ЮЗ) 20000 м    10/10 600 м 
[Sc]
+1.2 -3.5 71 1013.2  2.3  748  301           
15 23.11.17 200 (Ю) 20000 м    9/9 600 м 
[Sc]
-0.1 -3.9 76 -1  1015  1.7  750  303    +1.5       
18 23.11.17 240 (ЮЗ) 20000 м    10/10 600 м 
[Sc]
-0.2 -3.3 80 -1  1017  1.9  751  303           
21 23.11.17 240 (ЮЗ) 20000 м    10/10 300 м 
[Sc]
-0.2 -2.9 82 -1  1018.3  1.3  752  304           
00 24.11.17 300 (СЗ) 20000 м    9/9 600 м 
[Sc]
-0.3 -6.2 64 -1  1019.4  1.3  753  304           
03 24.11.17 310 (СЗ) 20000 м    9/9 600 м 
[Sc]
-0.7 -4.9 73 -2  1020.4  754  305  -0.8         
06 24.11.17 350 (С) 20000 м    10/8 600 м средняя 
[Sc|Ac As]
-0.7 -5.4 70 -2  1022  1.5  755  306  -0.9         
09 24.11.17 310 (СЗ) 20000 м    8/5 600 м средняя 
[Sc|Ac trans]
-0.3 -6 65 -2  1022.4  0.4  755  305           
12 24.11.17 280 (З) 20000 м    10/10 600 м 
[Sc]
-0.1 -6.7 61 -4  1021.9  -0.5  755  305           
15 24.11.17 300 (СЗ) 5{10}  20000 м    9/6 600 м средняя 
[Sc|Ac trans]
-1.2 -6.3 68 -4  1022.2  0.3  755  306    +0.1       
18 24.11.17 270 (З) 20000 м    9/3 600 м средняя 
[Sc|Ac trans]
-1.6 -4.8 79 -5  1022.9  0.6  755  307           
21 24.11.17 270 (З) 20000 м    9/3 300 м средняя 
[Sc|Ac trans]
-2.3 -5 82 -6  1023.2  0.3  756  308           
00 25.11.17 250 (З) 20000 м    10/4 300 м средняя 
[Sc|Ac und]
-2.6 -4.8 85 -6  1023  -0.2  755  308           
03 25.11.17 260 (З) 20000 м  в посл. час ливневой снег  10/5 300 м средняя 
[Sc|Ac und]
-2.3 -5 82 -4  1024.1  1.1  756  308  -2.7    0.0     
06 25.11.17 250 (З) 4000 м  слаб. ливневой снег  10/8 300 м кучево-дожд., средняя 
[Cb calv|Ac As]
-2.7 -5.1 84 -6  1025  0.9  757  309  -2.9         
09 25.11.17 250 (З) 10 км  в посл. час ливневой снег  10/8 300 м средняя 
[Sc|Ac As]
-3.1 -5.6 83 -5  1025.4  0.4  757  309           
Время (UTC), дата Ветер
(°,м/с) 
Видим.   Явления Облачность Т
(°С)
Тd
(°С)
f(%) Тe
(°С)
Pmin
(гПа)
dP
(гПа)
Po
(мм)
O2
(г/м3)
Тmin Tmax R s Состояние
почвы

Для получения пояснительной информации подведите курсор к названию столбца.

ПОГОДА в Камышине - архив

Всё, что Вы хотите узнать о погоде в Камышине - удобно и подробно!

Выберите нужную дату (начиная с 1 января 2015* года) и нажмите кнопку "Найти".
Будут отображены архивные сводки погоды по пункту Камышин, начиная с указанной даты.


Отображать данные в формате CSV (для использования в таблицах Excel)


Внимание! Наш архив погоды предназначен исключительно для личного некоммерческого использования в познавательных целях. Если Вам необходимы официальные справки о состоянии погоды (для производственных, юридических, коммерческих и т.п. целей), обращайтесь в органы Росгидромета.

*Примечание: данная дата относится к архиву по метеостанциям СССР (Россия, СНГ, Балтия).
Архив по метеостанциям Зарубежной Европы и Азии (кроме Китая) хранится 10 дней, по другим регионам земного шара (Китай, Африка, Америка, Австралия, Океания) - 1 день.

Камышин - район местоположения метеостанции


Название, широта, долгота, высота метеостанции:
Камышин 50.1°ш. 45.4°д. 119 м над ур. моря [Российская Федерация]

Дополнительная информация

В oтличие oт бoльшинства пoгoдных сайтoв мы публикуем пoдрoбную метеoинфoрмацию в детальнoм прoфессиoнальнoм фoрмате.

Характеристики температуры и влажнoсти вoздуха измеряются на высoте 2 м в тени вдали oт зданий и деревьев.
Скoрoсть ветра измеряется на высoте 10 м (на урoвне рoста челoвека скoрoсть ветра ниже в 1.5-2 раза). Если метеoстанция нахoдится в гoрoде или в лесу, тo скoрoсть ветра занижена на 2-4 м/с пo сравнению с oткрытым местoм. Скoрoсть ветра над акватoриями крупных рек и oзёр, а также на вершинах хoлмoв на 2-5 м/с выше, чем в oбычных услoвиях.
Атмoсфернoе давление в разных тoчках местнoсти мoжет значительнo oтличаться oт давления на метеoстанции, в зависимoсти oт услoвий рельефа (при пoдъёме на 10 м давление пoнижается примернo на 1 мм рт.ст.).